Regional Weather Roundup
Issued by NWS

Home | Current Version | Previous Version | Graphics & Text | Print | Product List | Glossary On
Versions: 1 2 3 4 5 6 7 8 9 10 11 12 13 14 15 16 17 18 19 20 21 22 23 24 25 26 27 28 29 30 31 32 33 34 35 36 37 38 39 40 41 42 43 44 45 46 47 48 49 50
177
ASUS44 KMEG 262210
RWRTN
TENNESSEE HOURLY STATE WEATHER ROUNDUP
NATIONAL WEATHER SERVICE MEMPHIS TN
500 PM CDT FRI AUG 26 2016

TNZ002-004-019-021-049-052-054-088>092-262300-
WEST TENNESSEE

CITY           SKY/WX    TMP DP  RH WIND       PRES   REMARKS
MEMPHIS INTL   LGT RAIN  78  73  84 CALM      30.04F
NWS MEMPHIS      N/A     74 N/A N/A MISG        N/A
JACKSON        CLOUDY    76  74  93 W7        30.07R
DYERSBURG      CLOUDY   N/A N/A N/A MISG        N/A  THUNDER
UNION CITY     PTSUNNY   79  72  78 SW10      30.05R
PARIS          SUNNY     82  77  83 CALM      30.04R HX  91
LEXINGTON      SUNNY     81  77  89 S3        30.03
$$

TNZ008-025-027-028-033-062-065-066-262300-
NORTH MIDDLE TENNESSEE

CITY           SKY/WX    TMP DP  RH WIND       PRES   REMARKS
NASHVILLE      PTSUNNY   93  72  50 NE12      30.02S HX 101
CLARKSVILLE    CLOUDY    89  75  63 NE6       30.02F HX  99
COOKEVILLE     SUNNY     91  73  55 VRB6      30.04F HX 100
CROSSVILLE     SUNNY     87  69  54 NE9       30.11F HX  91
$$

TNZ061-075-076-078-094-096-097-262300-
SOUTH MIDDLE TENNESSEE

CITY           SKY/WX    TMP DP  RH WIND       PRES   REMARKS
FAYETTEVILLE   MOSUNNY   88  73  62 W3        30.02F HX  96
TULLAHOMA      SUNNY     91  70  49 NE9       30.05S HX  97
WINCHESTER     MOSUNNY   93  72  49 SE12      30.03S HX 100
MCMINNVILLE    SUNNY     91  75  59 NE9       30.04F HX 102
COLUMBIA       SUNNY     90  75  62 E3        30.01R HX 100
SHELBYVILLE    MOSUNNY   91  75  59 CALM      30.03S HX 102
$$

TNZ017-018-042-046-047-262300-
NORTHEAST TENNESSEE

CITY           SKY/WX    TMP DP  RH WIND       PRES   REMARKS
TRI CITIES     MOSUNNY   90  68  48 VRB5      30.11S HX  94
ELIZABETHTON   SUNNY     90  68  48 CALM      30.10S HX  93
$$

TNZ012-013-036-069-073-074-262300-
CENTRAL EAST TENNESSEE

CITY           SKY/WX    TMP DP  RH WIND       PRES   REMARKS
KNOXVILLE      MOSUNNY   94  66  39 NE14      30.03F HX  97
OAK RIDGE      SUNNY     93  70  46 VRB6      30.06  HX  99
GATLINBURG     SUNNY     91  68  46 E9        30.04F HX  95
MORRISTOWN     SUNNY     91  66  43 E6        30.08S HX  94
$$

TNZ083-085-099-262300-
SOUTHEAST TENNESSEE

CITY           SKY/WX    TMP DP  RH WIND       PRES   REMARKS
CHATTANOOGA    TSTM      78  71  79 E9G24     30.05R FOG
$$

SKY/WX REPORTED AS FAIR MEANS FEW OR NO CLOUDS BELOW
12 THOUSAND FEET.





USA.gov is the U.S. government's official web portal to all federal, state and local government web resources and services.